Location: Unspecified
(0.0000°N, 0.0000°E)
Time: 10:26:48
(UTC-01:00)

N. Korean satellite - Visible Passes

Search period start: 19 January 2018 00:00
Search period end: 29 January 2018 00:00
Orbit: 459 x 515 km, 97.2° (Epoch: 18 January)

Date Brightness Start Highest point End Pass type
(mag) Time Alt. Az. Time Alt. Az. Time Alt. Az.
20 Jan 9.7 04:43:24 10° NE 04:45:53 18° ESE 04:48:23 10° SSE visible
20 Jan 9.9 18:05:06 10° SW 18:07:32 17° WSW 18:09:56 10° WNW visible
21 Jan 8.3 17:40:29 10° S 17:43:58 39° W 17:47:23 10° NNW visible
24 Jan 9.8 04:42:14 10° ENE 04:44:42 18° ESE 04:47:12 10° SSE visible
24 Jan 9.9 18:03:56 10° SW 18:06:23 17° WSW 18:08:48 10° WNW visible
25 Jan 8.2 17:39:19 10° S 17:42:48 40° W 17:46:12 10° NNW visible
28 Jan 9.8 04:41:02 10° ENE 04:43:30 18° ESE 04:46:00 10° SE visible
28 Jan 9.9 18:02:43 10° SW 18:05:10 17° WSW 18:07:36 10° WNW visible
